Wetterdaten: Mittwoch, 07.10.2015
Datum Zeit Temp. A. Feuchte A. Luftdruck Regen Wind Richtung Richtung Sonnenschein ET UV Solar Taupunkt Windchill Windben Empfang
07.10.2015 00:03 13,3 C 93 % 1009,7 hPa 0,0 l/m 0,4 km/h (0 Bft) O-SO 121 0 min 0,000 mm 0,0 UV-I 0 W/m 12,2 C 13,3 C 4,0 km/h (1 Bft) 0,00 %
07.10.2015 00:08 13,3 C 93 % 1009,5 hPa 0,0 l/m 0,4 km/h (0 Bft) SW 216 0 min 0,000 mm 0,0 UV-I 0 W/m 12,2 C 13,3 C 4,0 km/h (1 Bft) 0,00 %
07.10.2015 00:13 13,3 C 94 % 1009,6 hPa 0,0 l/m 0,0 km/h (0 Bft) SO 136 0 min 0,000 mm 0,0 UV-I 0 W/m 12,4 C 13,3 C 0,0 km/h (0 Bft) 0,00 %
07.10.2015 00:18 13,3 C 94 % 1009,7 hPa 0,0 l/m 0,0 km/h (0 Bft) S 182 0 min 0,000 mm 0,0 UV-I 0 W/m 12,4 C 13,3 C 0,0 km/h (0 Bft) 0,00 %
07.10.2015 00:23 13,3 C 94 % 1009,8 hPa 0,0 l/m 0,0 km/h (0 Bft) O 95 0 min 0,000 mm 0,0 UV-I 0 W/m 12,4 C 13,3 C 0,0 km/h (0 Bft) 0,00 %
07.10.2015 00:28 13,2 C 94 % 1009,6 hPa 0,0 l/m 0,0 km/h (0 Bft) O 100 0 min 0,000 mm 0,0 UV-I 0 W/m 12,3 C 13,2 C 0,0 km/h (0 Bft) 0,00 %
07.10.2015 00:33 13,2 C 94 % 1009,7 hPa 0,0 l/m 0,4 km/h (0 Bft) N 349 0 min 0,000 mm 0,0 UV-I 0 W/m 12,3 C 13,2 C 4,0 km/h (1 Bft) 0,00 %
07.10.2015 00:38 13,2 C 94 % 1009,8 hPa 0,0 l/m 0,0 km/h (0 Bft) S-SO 157 0 min 0,000 mm 0,0 UV-I 0 W/m 12,3 C 13,2 C 0,0 km/h (0 Bft) 0,00 %
07.10.2015 00:43 13,2 C 94 % 1009,7 hPa 0,0 l/m 1,4 km/h (1 Bft) O-SO 115 0 min 0,000 mm 0,0 UV-I 0 W/m 12,3 C 13,2 C 4,0 km/h (1 Bft) 0,00 %
07.10.2015 00:48 13,2 C 94 % 1009,7 hPa 0,0 l/m 3,2 km/h (1 Bft) S 182 0 min 0,000 mm 0,0 UV-I 0 W/m 12,3 C 13,2 C 4,0 km/h (1 Bft) 0,00 %
07.10.2015 00:53 13,2 C 94 % 1009,8 hPa 0,0 l/m 0,0 km/h (0 Bft) N 353 0 min 0,000 mm 0,0 UV-I 0 W/m 12,3 C 13,2 C 0,0 km/h (0 Bft) 0,00 %
07.10.2015 00:58 13,3 C 94 % 1009,8 hPa 0,0 l/m 0,4 km/h (0 Bft) S 179 0 min 0,000 mm 0,0 UV-I 0 W/m 12,4 C 13,3 C 4,0 km/h (1 Bft) 0,00 %
07.10.2015 01:03 13,3 C 94 % 1009,8 hPa 0,0 l/m 0,0 km/h (0 Bft) SW 216 0 min 0,000 mm 0,0 UV-I 0 W/m 12,4 C 13,3 C 0,0 km/h (0 Bft) 0,00 %
07.10.2015 01:09 13,3 C 94 % 1009,7 hPa 0,0 l/m 2,2 km/h (1 Bft) SW 232 0 min 0,000 mm 0,0 UV-I 0 W/m 12,4 C 13,3 C 4,0 km/h (1 Bft) 0,00 %
07.10.2015 01:14 13,3 C 94 % 1009,8 hPa 0,0 l/m 5,4 km/h (1 Bft) S 182 0 min 0,000 mm 0,0 UV-I 0 W/m 12,4 C 13,3 C 7,9 km/h (2 Bft) 0,00 %
07.10.2015 01:19 13,4 C 94 % 1009,7 hPa 0,0 l/m 1,4 km/h (1 Bft) S 185 0 min 0,000 mm 0,0 UV-I 0 W/m 12,5 C 13,4 C 4,0 km/h (1 Bft) 0,00 %
07.10.2015 01:24 13,4 C 94 % 1009,8 hPa 0,3 l/m 2,9 km/h (1 Bft) NW 323 0 min 0,000 mm 0,0 UV-I 0 W/m 12,5 C 13,4 C 4,0 km/h (1 Bft) 0,00 %
07.10.2015 01:29 13,4 C 94 % 1009,9 hPa 0,0 l/m 1,8 km/h (1 Bft) S-SW 209 0 min 0,000 mm 0,0 UV-I 0 W/m 12,5 C 13,4 C 4,0 km/h (1 Bft) 0,00 %
07.10.2015 01:34 13,5 C 94 % 1010,0 hPa 0,0 l/m 3,2 km/h (1 Bft) S-SO 162 0 min 0,000 mm 0,0 UV-I 0 W/m 12,6 C 13,5 C 7,9 km/h (2 Bft) 0,00 %
07.10.2015 01:39 13,5 C 94 % 1009,9 hPa 0,0 l/m 0,7 km/h (0 Bft) O-NO 66 0 min 0,000 mm 0,0 UV-I 0 W/m 12,6 C 13,5 C 4,0 km/h (1 Bft) 0,00 %
07.10.2015 01:44 13,5 C 94 % 1010,1 hPa 0,0 l/m 4,0 km/h (1 Bft) S-SW 195 0 min 0,000 mm 0,0 UV-I 0 W/m 12,6 C 13,5 C 4,0 km/h (1 Bft) 0,00 %
07.10.2015 01:49 13,5 C 94 % 1010,0 hPa 0,0 l/m 5,4 km/h (1 Bft) SW 216 0 min 0,000 mm 0,0 UV-I 0 W/m 12,6 C 13,5 C 11,9 km/h (2 Bft) 0,00 %
07.10.2015 01:54 13,5 C 94 % 1010,0 hPa 0,0 l/m 4,0 km/h (1 Bft) S-SW 206 0 min 0,000 mm 0,0 UV-I 0 W/m 12,6 C 13,5 C 7,9 km/h (2 Bft) 0,00 %
07.10.2015 01:59 13,5 C 94 % 1009,9 hPa 0,0 l/m 2,9 km/h (1 Bft) W-SW 256 0 min 0,000 mm 0,0 UV-I 0 W/m 12,6 C 13,5 C 4,0 km/h (1 Bft) 0,00 %
07.10.2015 02:04 13,4 C 95 % 1010,0 hPa 0,0 l/m 4,0 km/h (1 Bft) NO 42 0 min 0,000 mm 0,0 UV-I 0 W/m 12,6 C 13,4 C 7,9 km/h (2 Bft) 0,00 %
07.10.2015 02:09 13,4 C 95 % 1010,1 hPa 0,0 l/m 3,2 km/h (1 Bft) S-SW 194 0 min 0,000 mm 0,0 UV-I 0 W/m 12,6 C 13,4 C 4,0 km/h (1 Bft) 0,00 %
07.10.2015 02:14 13,4 C 94 % 1010,0 hPa 0,0 l/m 0,7 km/h (0 Bft) NO 42 0 min 0,000 mm 0,0 UV-I 0 W/m 12,5 C 13,4 C 4,0 km/h (1 Bft) 0,00 %
07.10.2015 02:19 13,3 C 94 % 1010,0 hPa 0,0 l/m 4,0 km/h (1 Bft) S-SW 195 0 min 0,000 mm 0,0 UV-I 0 W/m 12,4 C 13,3 C 7,9 km/h (2 Bft) 0,00 %
07.10.2015 02:24 13,3 C 94 % 1010,0 hPa 0,0 l/m 2,2 km/h (1 Bft) O 82 0 min 0,000 mm 0,0 UV-I 0 W/m 12,4 C 13,3 C 4,0 km/h (1 Bft) 0,00 %
07.10.2015 02:29 13,3 C 94 % 1010,1 hPa 0,0 l/m 0,4 km/h (0 Bft) S 178 0 min 0,000 mm 0,0 UV-I 0 W/m 12,4 C 13,3 C 4,0 km/h (1 Bft) 0,00 %
07.10.2015 02:34 13,3 C 94 % 1010,1 hPa 0,0 l/m 9,4 km/h (2 Bft) SO 143 0 min 0,000 mm 0,0 UV-I 0 W/m 12,4 C 11,5 C 11,9 km/h (2 Bft) 0,00 %
07.10.2015 02:39 13,3 C 94 % 1010,3 hPa 0,0 l/m 6,8 km/h (2 Bft) W-SW 252 0 min 0,000 mm 0,0 UV-I 0 W/m 12,4 C 13,1 C 7,9 km/h (2 Bft) 0,00 %
07.10.2015 02:44 13,2 C 94 % 1010,3 hPa 0,0 l/m 7,9 km/h (2 Bft) S 188 0 min 0,000 mm 0,0 UV-I 0 W/m 12,3 C 12,3 C 15,8 km/h (3 Bft) 0,00 %
07.10.2015 02:49 13,2 C 94 % 1010,2 hPa 0,0 l/m 4,3 km/h (1 Bft) S-SW 203 0 min 0,000 mm 0,0 UV-I 0 W/m 12,3 C 13,2 C 7,9 km/h (2 Bft) 0,00 %
07.10.2015 02:54 13,2 C 93 % 1010,0 hPa 0,0 l/m 2,9 km/h (1 Bft) S 173 0 min 0,000 mm 0,0 UV-I 0 W/m 12,1 C 13,2 C 4,0 km/h (1 Bft) 0,00 %
07.10.2015 02:59 13,1 C 93 % 1010,1 hPa 0,0 l/m 5,4 km/h (1 Bft) S-SW 205 0 min 0,000 mm 0,0 UV-I 0 W/m 12,0 C 13,1 C 7,9 km/h (2 Bft) 0,00 %
07.10.2015 03:04 13,1 C 93 % 1010,1 hPa 0,0 l/m 4,0 km/h (1 Bft) S 182 0 min 0,000 mm 0,0 UV-I 0 W/m 12,0 C 13,1 C 4,0 km/h (1 Bft) 0,00 %
07.10.2015 03:09 13,1 C 93 % 1009,9 hPa 0,0 l/m 5,4 km/h (1 Bft) NW 310 0 min 0,000 mm 0,0 UV-I 0 W/m 12,0 C 13,1 C 7,9 km/h (2 Bft) 0,00 %
07.10.2015 03:14 13,1 C 93 % 1010,0 hPa 0,0 l/m 6,5 km/h (2 Bft) S-SW 209 0 min 0,000 mm 0,0 UV-I 0 W/m 12,0 C 13,1 C 7,9 km/h (2 Bft) 0,00 %
07.10.2015 03:19 13,1 C 93 % 1010,1 hPa 0,0 l/m 3,2 km/h (1 Bft) W-SW 256 0 min 0,000 mm 0,0 UV-I 0 W/m 12,0 C 13,1 C 7,9 km/h (2 Bft) 0,00 %
07.10.2015 03:24 13,1 C 93 % 1010,1 hPa 0,0 l/m 0,0 km/h (0 Bft) SO 135 0 min 0,000 mm 0,0 UV-I 0 W/m 12,0 C 13,1 C 0,0 km/h (0 Bft) 0,00 %
07.10.2015 03:29 13,0 C 93 % 1010,3 hPa 0,0 l/m 6,5 km/h (2 Bft) S-SW 210 0 min 0,000 mm 0,0 UV-I 0 W/m 11,9 C 13,0 C 11,9 km/h (2 Bft) 0,00 %
07.10.2015 03:34 13,0 C 93 % 1010,3 hPa 0,0 l/m 1,8 km/h (1 Bft) W-SW 255 0 min 0,000 mm 0,0 UV-I 0 W/m 11,9 C 13,0 C 4,0 km/h (1 Bft) 0,00 %
07.10.2015 03:39 13,0 C 93 % 1009,9 hPa 0,3 l/m 3,2 km/h (1 Bft) S 188 0 min 0,000 mm 0,0 UV-I 0 W/m 11,9 C 13,0 C 7,9 km/h (2 Bft) 0,00 %
07.10.2015 03:44 12,9 C 94 % 1010,0 hPa 0,0 l/m 2,9 km/h (1 Bft) SO 138 0 min 0,000 mm 0,0 UV-I 0 W/m 12,0 C 12,9 C 7,9 km/h (2 Bft) 0,00 %
07.10.2015 03:49 12,9 C 94 % 1009,9 hPa 0,0 l/m 5,4 km/h (1 Bft) S 176 0 min 0,000 mm 0,0 UV-I 0 W/m 12,0 C 12,9 C 7,9 km/h (2 Bft) 0,00 %
07.10.2015 03:54 12,9 C 94 % 1010,3 hPa 0,0 l/m 5,4 km/h (1 Bft) W-SW 237 0 min 0,000 mm 0,0 UV-I 0 W/m 12,0 C 12,9 C 7,9 km/h (2 Bft) 0,00 %
07.10.2015 03:59 12,8 C 94 % 1010,2 hPa 0,0 l/m 1,8 km/h (1 Bft) S-SW 204 0 min 0,000 mm 0,0 UV-I 0 W/m 11,9 C 12,8 C 4,0 km/h (1 Bft) 0,00 %
07.10.2015 04:04 12,8 C 94 % 1010,2 hPa 0,0 l/m 5,8 km/h (2 Bft) S 189 0 min 0,000 mm 0,0 UV-I 0 W/m 11,9 C 12,8 C 7,9 km/h (2 Bft) 0,00 %
07.10.2015 04:09 12,8 C 94 % 1010,2 hPa 0,0 l/m 0,4 km/h (0 Bft) W-NW 298 0 min 0,000 mm 0,0 UV-I 0 W/m 11,9 C 12,8 C 4,0 km/h (1 Bft) 0,00 %
07.10.2015 04:14 12,8 C 94 % 1009,9 hPa 0,0 l/m 7,9 km/h (2 Bft) S 191 0 min 0,000 mm 0,0 UV-I 0 W/m 11,9 C 11,9 C 11,9 km/h (2 Bft) 0,00 %
07.10.2015 04:19 12,7 C 94 % 1010,0 hPa 0,0 l/m 9,4 km/h (2 Bft) S-SW 193 0 min 0,000 mm 0,0 UV-I 0 W/m 11,8 C 10,9 C 11,9 km/h (2 Bft) 0,00 %
07.10.2015 04:24 12,7 C 94 % 1010,3 hPa 0,3 l/m 7,9 km/h (2 Bft) S-SW 208 0 min 0,000 mm 0,0 UV-I 0 W/m 11,8 C 11,7 C 11,9 km/h (2 Bft) 0,00 %
07.10.2015 04:29 12,6 C 95 % 1010,1 hPa 0,0 l/m 4,0 km/h (1 Bft) S-SW 194 0 min 0,000 mm 0,0 UV-I 0 W/m 11,8 C 12,6 C 4,0 km/h (1 Bft) 0,00 %
07.10.2015 04:34 12,6 C 95 % 1010,2 hPa 0,0 l/m 6,8 km/h (2 Bft) S-SW 199 0 min 0,000 mm 0,0 UV-I 0 W/m 11,8 C 12,4 C 11,9 km/h (2 Bft) 0,00 %
07.10.2015 04:39 12,5 C 95 % 1010,3 hPa 0,0 l/m 4,7 km/h (1 Bft) S 184 0 min 0,000 mm 0,0 UV-I 0 W/m 11,7 C 12,5 C 7,9 km/h (2 Bft) 0,00 %
07.10.2015 04:44 12,5 C 95 % 1010,2 hPa 0,0 l/m 3,2 km/h (1 Bft) S 181 0 min 0,000 mm 0,0 UV-I 0 W/m 11,7 C 12,5 C 7,9 km/h (2 Bft) 0,00 %
07.10.2015 04:49 12,5 C 95 % 1010,2 hPa 0,3 l/m 5,4 km/h (1 Bft) S-SW 204 0 min 0,000 mm 0,0 UV-I 0 W/m 11,7 C 12,5 C 7,9 km/h (2 Bft) 0,00 %
07.10.2015 04:54 12,5 C 95 % 1010,3 hPa 0,0 l/m 0,7 km/h (0 Bft) NW 319 0 min 0,000 mm 0,0 UV-I 0 W/m 11,7 C 12,5 C 4,0 km/h (1 Bft) 0,00 %
07.10.2015 04:59 12,5 C 95 % 1010,3 hPa 0,3 l/m 4,0 km/h (1 Bft) S 186 0 min 0,000 mm 0,0 UV-I 0 W/m 11,7 C 12,5 C 4,0 km/h (1 Bft) 0,00 %
07.10.2015 05:04 12,5 C 95 % 1010,2 hPa 0,0 l/m 4,0 km/h (1 Bft) SW 217 0 min 0,000 mm 0,0 UV-I 0 W/m 11,7 C 12,5 C 7,9 km/h (2 Bft) 0,00 %
07.10.2015 05:09 12,5 C 96 % 1010,2 hPa 0,3 l/m 0,4 km/h (0 Bft) O-NO 67 0 min 0,000 mm 0,0 UV-I 0 W/m 11,9 C 12,5 C 4,0 km/h (1 Bft) 0,00 %
07.10.2015 05:14 12,5 C 96 % 1010,3 hPa 0,0 l/m 4,0 km/h (1 Bft) S-SW 195 0 min 0,000 mm 0,0 UV-I 0 W/m 11,9 C 12,5 C 7,9 km/h (2 Bft) 0,00 %
07.10.2015 05:19 12,5 C 96 % 1010,3 hPa 0,0 l/m 0,0 km/h (0 Bft) S 177 0 min 0,000 mm 0,0 UV-I 0 W/m 11,9 C 12,5 C 0,0 km/h (0 Bft) 0,00 %
07.10.2015 05:24 12,5 C 96 % 1010,2 hPa 0,3 l/m 0,4 km/h (0 Bft) W-SW 251 0 min 0,000 mm 0,0 UV-I 0 W/m 11,9 C 12,5 C 4,0 km/h (1 Bft) 0,00 %
07.10.2015 05:29 12,4 C 96 % 1010,2 hPa 0,0 l/m 1,8 km/h (1 Bft) S-SW 194 0 min 0,000 mm 0,0 UV-I 0 W/m 11,8 C 12,4 C 4,0 km/h (1 Bft) 0,00 %
07.10.2015 05:34 12,4 C 96 % 1010,3 hPa 0,3 l/m 0,0 km/h (0 Bft) SO 144 0 min 0,000 mm 0,0 UV-I 0 W/m 11,8 C 12,4 C 0,0 km/h (0 Bft) 0,00 %
07.10.2015 05:39 12,4 C 96 % 1010,2 hPa 0,0 l/m 0,4 km/h (0 Bft) W-SW 251 0 min 0,000 mm 0,0 UV-I 0 W/m 11,8 C 12,4 C 4,0 km/h (1 Bft) 0,00 %
07.10.2015 05:44 12,4 C 96 % 1010,4 hPa 0,0 l/m 0,0 km/h (0 Bft) O-NO 62 0 min 0,000 mm 0,0 UV-I 0 W/m 11,8 C 12,4 C 0,0 km/h (0 Bft) 0,00 %
07.10.2015 05:49 12,4 C 96 % 1010,4 hPa 0,3 l/m 0,0 km/h (0 Bft) O 96 0 min 0,000 mm 0,0 UV-I 0 W/m 11,8 C 12,4 C 0,0 km/h (0 Bft) 0,00 %
07.10.2015 05:54 12,4 C 96 % 1010,5 hPa 0,0 l/m 0,0 km/h (0 Bft) S 178 0 min 0,000 mm 0,0 UV-I 0 W/m 11,8 C 12,4 C 0,0 km/h (0 Bft) 0,00 %
07.10.2015 05:59 12,4 C 96 % 1010,5 hPa 0,0 l/m 4,7 km/h (1 Bft) SO 138 0 min 0,000 mm 0,0 UV-I 0 W/m 11,8 C 12,4 C 7,9 km/h (2 Bft) 0,00 %
07.10.2015 06:04 12,4 C 96 % 1010,3 hPa 0,0 l/m 1,4 km/h (1 Bft) W-SW 256 0 min 0,000 mm 0,0 UV-I 0 W/m 11,8 C 12,4 C 4,0 km/h (1 Bft) 0,00 %
07.10.2015 06:09 12,4 C 97 % 1010,3 hPa 0,3 l/m 0,0 km/h (0 Bft) S-SO 154 0 min 0,000 mm 0,0 UV-I 0 W/m 11,9 C 12,4 C 0,0 km/h (0 Bft) 0,00 %
07.10.2015 06:14 12,4 C 97 % 1010,4 hPa 0,0 l/m 0,7 km/h (0 Bft) S 176 0 min 0,000 mm 0,0 UV-I 0 W/m 11,9 C 12,4 C 4,0 km/h (1 Bft) 0,00 %
07.10.2015 06:19 12,4 C 97 % 1010,4 hPa 0,3 l/m 4,0 km/h (1 Bft) S 187 0 min 0,000 mm 0,0 UV-I 0 W/m 11,9 C 12,4 C 7,9 km/h (2 Bft) 0,00 %
07.10.2015 06:24 12,4 C 97 % 1010,5 hPa 0,0 l/m 2,2 km/h (1 Bft) S-SW 207 0 min 0,000 mm 0,0 UV-I 0 W/m 11,9 C 12,4 C 4,0 km/h (1 Bft) 0,00 %
07.10.2015 06:29 12,4 C 97 % 1010,4 hPa 0,3 l/m 0,0 km/h (0 Bft) S 177 0 min 0,000 mm 0,0 UV-I 0 W/m 11,9 C 12,4 C 0,0 km/h (0 Bft) 0,00 %
07.10.2015 06:34 12,4 C 97 % 1010,6 hPa 0,0 l/m 0,0 km/h (0 Bft) S 177 0 min 0,000 mm 0,0 UV-I 0 W/m 11,9 C 12,4 C 0,0 km/h (0 Bft) 0,00 %
07.10.2015 06:39 12,4 C 97 % 1010,7 hPa 0,0 l/m 4,3 km/h (1 Bft) S 191 0 min 0,000 mm 0,0 UV-I 0 W/m 11,9 C 12,4 C 7,9 km/h (2 Bft) 0,00 %
07.10.2015 06:44 12,4 C 97 % 1010,6 hPa 0,3 l/m 2,9 km/h (1 Bft) S-SW 194 0 min 0,000 mm 0,0 UV-I 0 W/m 11,9 C 12,4 C 4,0 km/h (1 Bft) 0,00 %
07.10.2015 06:49 12,4 C 97 % 1010,4 hPa 0,0 l/m 0,7 km/h (0 Bft) W-SW 244 0 min 0,000 mm 0,0 UV-I 0 W/m 11,9 C 12,4 C 4,0 km/h (1 Bft) 0,00 %
07.10.2015 06:54 12,4 C 97 % 1010,5 hPa 0,3 l/m 2,9 km/h (1 Bft) W-SW 255 0 min 0,000 mm 0,0 UV-I 0 W/m 11,9 C 12,4 C 4,0 km/h (1 Bft) 0,00 %
07.10.2015 06:59 12,4 C 97 % 1010,5 hPa 0,3 l/m 2,9 km/h (1 Bft) S-SW 203 0 min 0,000 mm 0,0 UV-I 0 W/m 11,9 C 12,4 C 4,0 km/h (1 Bft) 0,00 %
07.10.2015 07:04 12,4 C 97 % 1010,6 hPa 0,3 l/m 0,0 km/h (0 Bft) O-NO 70 0 min 0,000 mm 0,0 UV-I 0 W/m 11,9 C 12,4 C 0,0 km/h (0 Bft) 0,00 %
07.10.2015 07:09 12,4 C 97 % 1010,7 hPa 0,3 l/m 0,0 km/h (0 Bft) O 87 0 min 0,000 mm 0,0 UV-I 0 W/m 11,9 C 12,4 C 0,0 km/h (0 Bft) 0,00 %
07.10.2015 07:14 12,4 C 97 % 1010,7 hPa 0,3 l/m 5,4 km/h (1 Bft) S 191 0 min 0,000 mm 0,0 UV-I 0 W/m 11,9 C 12,4 C 7,9 km/h (2 Bft) 0,00 %
07.10.2015 07:19 12,3 C 97 % 1010,6 hPa 0,3 l/m 0,4 km/h (0 Bft) NO 52 0 min 0,000 mm 0,0 UV-I 0 W/m 11,8 C 12,3 C 4,0 km/h (1 Bft) 0,00 %
07.10.2015 07:24 12,3 C 97 % 1010,6 hPa 0,3 l/m 0,7 km/h (0 Bft) SW 226 0 min 0,000 mm 0,0 UV-I 0 W/m 11,8 C 12,3 C 4,0 km/h (1 Bft) 0,00 %
07.10.2015 07:29 12,3 C 97 % 1010,7 hPa 0,3 l/m 4,0 km/h (1 Bft) S-SW 192 0 min 0,000 mm 0,0 UV-I 0 W/m 11,8 C 12,3 C 4,0 km/h (1 Bft) 0,00 %
07.10.2015 07:34 12,3 C 97 % 1010,7 hPa 0,0 l/m 0,7 km/h (0 Bft) SW 214 0 min 0,000 mm 0,0 UV-I 0 W/m 11,8 C 12,3 C 4,0 km/h (1 Bft) 0,00 %
07.10.2015 07:39 12,3 C 97 % 1010,6 hPa 0,3 l/m 4,3 km/h (1 Bft) S-SW 200 0 min 0,000 mm 0,0 UV-I 0 W/m 11,8 C 12,3 C 7,9 km/h (2 Bft) 0,00 %
07.10.2015 07:44 12,3 C 97 % 1010,7 hPa 0,0 l/m 0,4 km/h (0 Bft) S 177 0 min 0,000 mm 0,0 UV-I 2 W/m 11,8 C 12,3 C 4,0 km/h (1 Bft) 0,00 %
07.10.2015 07:49 12,3 C 97 % 1010,9 hPa 0,0 l/m 0,7 km/h (0 Bft) S 176 0 min 0,000 mm 0,0 UV-I 4 W/m 11,8 C 12,3 C 4,0 km/h (1 Bft) 0,00 %
07.10.2015 07:54 12,4 C 97 % 1010,7 hPa 0,3 l/m 0,0 km/h (0 Bft) S 187 0 min 0,000 mm 0,0 UV-I 5 W/m 11,9 C 12,4 C 0,0 km/h (0 Bft) 0,00 %
07.10.2015 07:59 12,4 C 97 % 1011,1 hPa 0,0 l/m 0,0 km/h (0 Bft) S 186 0 min 0,000 mm 0,0 UV-I 4 W/m 11,9 C 12,4 C 0,0 km/h (0 Bft) 0,00 %
07.10.2015 08:04 12,4 C 97 % 1011,1 hPa 0,0 l/m 0,0 km/h (0 Bft) S-SW 207 0 min 0,000 mm 0,0 UV-I 4 W/m 11,9 C 12,4 C 0,0 km/h (0 Bft) 0,00 %
07.10.2015 08:09 12,4 C 98 % 1011,1 hPa 0,3 l/m 0,0 km/h (0 Bft) O-SO 117 0 min 0,000 mm 0,0 UV-I 17 W/m 12,1 C 12,4 C 0,0 km/h (0 Bft) 0,00 %
07.10.2015 08:14 12,4 C 98 % 1011,1 hPa 0,0 l/m 0,0 km/h (0 Bft) O-SO 107 0 min 0,000 mm 0,0 UV-I 23 W/m 12,1 C 12,4 C 0,0 km/h (0 Bft) 0,00 %
07.10.2015 08:19 12,4 C 98 % 1010,9 hPa 0,0 l/m 0,4 km/h (0 Bft) S-SW 195 0 min 0,000 mm 0,0 UV-I 24 W/m 12,1 C 12,4 C 4,0 km/h (1 Bft) 0,00 %
07.10.2015 08:24 12,4 C 98 % 1011,0 hPa 0,0 l/m 0,7 km/h (0 Bft) S-SW 192 0 min 0,000 mm 0,0 UV-I 28 W/m 12,1 C 12,4 C 4,0 km/h (1 Bft) 0,00 %
07.10.2015 08:29 12,4 C 98 % 1011,1 hPa 0,3 l/m 0,0 km/h (0 Bft) O 84 0 min 0,000 mm 0,0 UV-I 29 W/m 12,1 C 12,4 C 0,0 km/h (0 Bft) 0,00 %
07.10.2015 08:34 12,4 C 98 % 1011,2 hPa 0,0 l/m 0,0 km/h (0 Bft) S 176 0 min 0,000 mm 0,0 UV-I 31 W/m 12,1 C 12,4 C 0,0 km/h (0 Bft) 0,00 %
07.10.2015 08:39 12,5 C 98 % 1011,2 hPa 0,0 l/m 0,0 km/h (0 Bft) S-SO 152 0 min 0,000 mm 0,0 UV-I 32 W/m 12,2 C 12,5 C 0,0 km/h (0 Bft) 0,00 %
07.10.2015 08:44 12,5 C 98 % 1011,2 hPa 0,3 l/m 1,4 km/h (1 Bft) S 186 0 min 0,000 mm 0,0 UV-I 35 W/m 12,2 C 12,5 C 4,0 km/h (1 Bft) 0,00 %
07.10.2015 08:49 12,5 C 98 % 1011,3 hPa 0,0 l/m 0,0 km/h (0 Bft) O-SO 113 0 min 0,000 mm 0,0 UV-I 38 W/m 12,2 C 12,5 C 0,0 km/h (0 Bft) 0,00 %
07.10.2015 08:54 12,5 C 98 % 1011,4 hPa 0,0 l/m 0,0 km/h (0 Bft) O-NO 63 0 min 0,000 mm 0,0 UV-I 44 W/m 12,2 C 12,5 C 0,0 km/h (0 Bft) 0,00 %
07.10.2015 08:59 12,6 C 98 % 1011,3 hPa 0,0 l/m 2,2 km/h (1 Bft) S 176 0 min 0,000 mm 0,0 UV-I 46 W/m 12,3 C 12,6 C 4,0 km/h (1 Bft) 0,00 %
07.10.2015 09:04 12,6 C 98 % 1011,3 hPa 0,3 l/m 0,0 km/h (0 Bft) SO 132 0 min 0,000 mm 0,0 UV-I 51 W/m 12,3 C 12,6 C 0,0 km/h (0 Bft) 0,00 %
07.10.2015 09:09 12,6 C 98 % 1011,4 hPa 0,0 l/m 0,0 km/h (0 Bft) N-NO 15 0 min 0,000 mm 0,0 UV-I 50 W/m 12,3 C 12,6 C 0,0 km/h (0 Bft) 0,00 %
07.10.2015 09:14 12,6 C 98 % 1011,4 hPa 0,3 l/m 0,0 km/h (0 Bft) S-SW 198 0 min 0,000 mm 0,0 UV-I 53 W/m 12,3 C 12,6 C 0,0 km/h (0 Bft) 0,00 %
07.10.2015 09:19 12,7 C 98 % 1011,6 hPa 0,0 l/m 0,0 km/h (0 Bft) O-SO 114 0 min 0,000 mm 0,0 UV-I 54 W/m 12,4 C 12,7 C 0,0 km/h (0 Bft) 0,00 %
07.10.2015 09:24 12,7 C 98 % 1011,6 hPa 0,3 l/m 0,7 km/h (0 Bft) W-SW 250 0 min 0,000 mm 0,0 UV-I 53 W/m 12,4 C 12,7 C 4,0 km/h (1 Bft) 0,00 %
07.10.2015 09:29 12,7 C 98 % 1011,6 hPa 0,3 l/m 4,0 km/h (1 Bft) W-SW 251 0 min 0,000 mm 0,0 UV-I 52 W/m 12,4 C 12,7 C 7,9 km/h (2 Bft) 0,00 %
07.10.2015 09:34 12,8 C 98 % 1011,7 hPa 0,3 l/m 2,2 km/h (1 Bft) S 175 0 min 0,000 mm 0,0 UV-I 64 W/m 12,5 C 12,8 C 4,0 km/h (1 Bft) 0,00 %
07.10.2015 09:39 12,8 C 98 % 1011,5 hPa 0,0 l/m 0,4 km/h (0 Bft) SO 144 0 min 0,000 mm 0,0 UV-I 82 W/m 12,5 C 12,8 C 4,0 km/h (1 Bft) 0,00 %
07.10.2015 09:44 12,8 C 98 % 1011,5 hPa 0,3 l/m 4,0 km/h (1 Bft) S-SW 207 0 min 0,000 mm 0,0 UV-I 85 W/m 12,5 C 12,8 C 7,9 km/h (2 Bft) 0,00 %
07.10.2015 09:49 12,8 C 97 % 1011,7 hPa 0,0 l/m 5,4 km/h (1 Bft) S 185 0 min 0,000 mm 1,0 UV-I 90 W/m 12,3 C 12,8 C 7,9 km/h (2 Bft) 0,00 %
07.10.2015 09:54 12,9 C 97 % 1011,7 hPa 0,0 l/m 4,3 km/h (1 Bft) S-SO 168 0 min 0,000 mm 1,0 UV-I 98 W/m 12,4 C 12,9 C 7,9 km/h (2 Bft) 0,00 %
07.10.2015 09:59 13,0 C 97 % 1011,7 hPa 0,3 l/m 3,2 km/h (1 Bft) S 173 0 min 0,000 mm 0,0 UV-I 97 W/m 12,5 C 13,0 C 7,9 km/h (2 Bft) 0,00 %
07.10.2015 10:04 13,0 C 97 % 1011,6 hPa 0,0 l/m 0,4 km/h (0 Bft) O 97 0 min 0,000 mm 0,0 UV-I 87 W/m 12,5 C 13,0 C 4,0 km/h (1 Bft) 0,00 %
07.10.2015 10:09 13,1 C 97 % 1011,8 hPa 0,0 l/m 4,7 km/h (1 Bft) S-SW 207 0 min 0,000 mm 0,0 UV-I 75 W/m 12,6 C 13,1 C 7,9 km/h (2 Bft) 0,00 %
07.10.2015 10:14 13,0 C 97 % 1011,8 hPa 0,0 l/m 1,8 km/h (1 Bft) W-SW 255 0 min 0,000 mm 0,0 UV-I 72 W/m 12,5 C 13,0 C 4,0 km/h (1 Bft) 0,00 %
07.10.2015 10:19 13,0 C 97 % 1011,9 hPa 0,0 l/m 5,8 km/h (2 Bft) S-SW 205 0 min 0,000 mm 0,0 UV-I 78 W/m 12,5 C 13,0 C 7,9 km/h (2 Bft) 0,00 %
07.10.2015 10:24 12,9 C 98 % 1012,1 hPa 0,0 l/m 6,5 km/h (2 Bft) S-SW 211 0 min 0,000 mm 0,0 UV-I 69 W/m 12,6 C 12,9 C 7,9 km/h (2 Bft) 0,00 %
07.10.2015 10:29 12,9 C 98 % 1011,9 hPa 0,3 l/m 0,4 km/h (0 Bft) N 354 0 min 0,000 mm 0,0 UV-I 77 W/m 12,6 C 12,9 C 4,0 km/h (1 Bft) 0,00 %
07.10.2015 10:34 12,9 C 97 % 1011,9 hPa 0,0 l/m 0,4 km/h (0 Bft) S 183 0 min 0,000 mm 0,0 UV-I 105 W/m 12,4 C 12,9 C 4,0 km/h (1 Bft) 0,00 %
07.10.2015 10:39 12,9 C 97 % 1011,9 hPa 0,0 l/m 9,0 km/h (2 Bft) SW 215 0 min 0,000 mm 0,0 UV-I 112 W/m 12,4 C 11,3 C 11,9 km/h (2 Bft) 0,00 %
07.10.2015 10:44 13,0 C 97 % 1012,0 hPa 0,0 l/m 2,9 km/h (1 Bft) S-SW 195 0 min 0,000 mm 0,0 UV-I 112 W/m 12,5 C 13,0 C 4,0 km/h (1 Bft) 0,00 %
07.10.2015 10:49 13,1 C 97 % 1011,9 hPa 0,3 l/m 4,3 km/h (1 Bft) S-SW 201 0 min 0,000 mm 0,0 UV-I 114 W/m 12,6 C 13,1 C 7,9 km/h (2 Bft) 0,00 %
07.10.2015 10:54 13,1 C 97 % 1012,1 hPa 0,0 l/m 9,0 km/h (2 Bft) S-SW 196 0 min 0,000 mm 0,0 UV-I 107 W/m 12,6 C 11,5 C 11,9 km/h (2 Bft) 0,00 %
07.10.2015 10:59 13,1 C 97 % 1012,2 hPa 0,0 l/m 1,8 km/h (1 Bft) S 186 0 min 0,000 mm 0,0 UV-I 102 W/m 12,6 C 13,1 C 4,0 km/h (1 Bft) 0,00 %
07.10.2015 11:04 13,1 C 97 % 1012,1 hPa 0,0 l/m 9,0 km/h (2 Bft) S-SW 201 0 min 0,000 mm 1,0 UV-I 98 W/m 12,6 C 11,5 C 11,9 km/h (2 Bft) 0,00 %
07.10.2015 11:09 13,1 C 97 % 1012,1 hPa 0,0 l/m 0,0 km/h (0 Bft) O 93 0 min 0,000 mm 1,0 UV-I 98 W/m 12,6 C 13,1 C 0,0 km/h (0 Bft) 0,00 %
07.10.2015 11:14 13,1 C 97 % 1012,3 hPa 0,0 l/m 3,2 km/h (1 Bft) SO 137 0 min 0,000 mm 1,0 UV-I 92 W/m 12,6 C 13,1 C 4,0 km/h (1 Bft) 0,00 %
07.10.2015 11:19 13,2 C 97 % 1012,2 hPa 0,3 l/m 0,4 km/h (0 Bft) S 174 0 min 0,000 mm 1,0 UV-I 93 W/m 12,7 C 13,2 C 4,0 km/h (1 Bft) 0,00 %
07.10.2015 11:24 13,2 C 97 % 1012,3 hPa 0,0 l/m 7,2 km/h (2 Bft) SW 215 0 min 0,000 mm 1,0 UV-I 96 W/m 12,7 C 12,7 C 7,9 km/h (2 Bft) 0,00 %
07.10.2015 11:29 13,2 C 97 % 1012,2 hPa 0,3 l/m 1,4 km/h (1 Bft) S 176 0 min 0,000 mm 0,0 UV-I 91 W/m 12,7 C 13,2 C 4,0 km/h (1 Bft) 0,00 %
07.10.2015 11:34 13,2 C 97 % 1012,2 hPa 0,0 l/m 0,0 km/h (0 Bft) S-SO 158 0 min 0,000 mm 0,0 UV-I 91 W/m 12,7 C 13,2 C 0,0 km/h (0 Bft) 0,00 %
07.10.2015 11:39 13,2 C 97 % 1012,2 hPa 0,3 l/m 0,0 km/h (0 Bft) SW 218 0 min 0,000 mm 0,0 UV-I 89 W/m 12,7 C 13,2 C 0,0 km/h (0 Bft) 0,00 %
07.10.2015 11:44 13,2 C 97 % 1012,3 hPa 0,0 l/m 5,4 km/h (1 Bft) SW 219 0 min 0,000 mm 0,0 UV-I 87 W/m 12,7 C 13,2 C 7,9 km/h (2 Bft) 0,00 %
07.10.2015 11:49 13,2 C 97 % 1012,3 hPa 0,3 l/m 3,2 km/h (1 Bft) S-SW 209 0 min 0,000 mm 0,0 UV-I 93 W/m 12,7 C 13,2 C 4,0 km/h (1 Bft) 0,00 %
07.10.2015 11:54 13,2 C 97 % 1012,2 hPa 0,0 l/m 1,8 km/h (1 Bft) O 92 0 min 0,000 mm 0,0 UV-I 91 W/m 12,7 C 13,2 C 4,0 km/h (1 Bft) 0,00 %
07.10.2015 11:59 13,2 C 97 % 1012,2 hPa 0,3 l/m 0,0 km/h (0 Bft) S 178 0 min 0,000 mm 0,0 UV-I 95 W/m 12,7 C 13,2 C 0,0 km/h (0 Bft) 0,00 %
07.10.2015 12:04 13,2 C 97 % 1012,4 hPa 0,0 l/m 0,0 km/h (0 Bft) SW 225 0 min 0,000 mm 1,0 UV-I 108 W/m 12,7 C 13,2 C 0,0 km/h (0 Bft) 0,00 %
07.10.2015 12:09 13,2 C 97 % 1012,3 hPa 0,0 l/m 0,0 km/h (0 Bft) O 90 0 min 0,000 mm 1,0 UV-I 110 W/m 12,7 C 13,2 C 0,0 km/h (0 Bft) 0,00 %
07.10.2015 12:14 13,3 C 97 % 1012,5 hPa 0,3 l/m 0,7 km/h (0 Bft) W-SW 252 0 min 0,000 mm 1,0 UV-I 120 W/m 12,8 C 13,3 C 4,0 km/h (1 Bft) 0,00 %
07.10.2015 12:19 13,3 C 97 % 1012,4 hPa 0,0 l/m 1,4 km/h (1 Bft) S-SO 158 0 min 0,000 mm 1,0 UV-I 127 W/m 12,8 C 13,3 C 4,0 km/h (1 Bft) 0,00 %
07.10.2015 12:24 13,3 C 97 % 1012,5 hPa 0,3 l/m 4,3 km/h (1 Bft) W-SW 256 0 min 0,000 mm 1,0 UV-I 131 W/m 12,8 C 13,3 C 7,9 km/h (2 Bft) 0,00 %
07.10.2015 12:29 13,3 C 96 % 1012,5 hPa 0,0 l/m 7,9 km/h (2 Bft) SW 229 0 min 0,000 mm 1,0 UV-I 130 W/m 12,7 C 12,4 C 7,9 km/h (2 Bft) 0,00 %
07.10.2015 12:34 13,3 C 96 % 1012,6 hPa 0,3 l/m 3,2 km/h (1 Bft) S-SW 210 0 min 0,000 mm 1,0 UV-I 127 W/m 12,7 C 13,3 C 4,0 km/h (1 Bft) 0,00 %
07.10.2015 12:39 13,3 C 96 % 1012,5 hPa 0,0 l/m 2,9 km/h (1 Bft) S-SW 197 0 min 0,000 mm 1,0 UV-I 131 W/m 12,7 C 13,3 C 7,9 km/h (2 Bft) 0,00 %
07.10.2015 12:44 13,4 C 96 % 1012,6 hPa 0,3 l/m 6,5 km/h (2 Bft) S-SW 196 0 min 0,000 mm 1,0 UV-I 134 W/m 12,8 C 13,4 C 7,9 km/h (2 Bft) 0,00 %
07.10.2015 12:49 13,4 C 96 % 1012,6 hPa 0,0 l/m 2,9 km/h (1 Bft) S-SW 202 0 min 0,000 mm 1,0 UV-I 132 W/m 12,8 C 13,4 C 4,0 km/h (1 Bft) 0,00 %
07.10.2015 12:54 13,5 C 96 % 1012,6 hPa 0,3 l/m 1,8 km/h (1 Bft) S 169 0 min 0,000 mm 1,0 UV-I 129 W/m 12,9 C 13,5 C 4,0 km/h (1 Bft) 0,00 %
07.10.2015 12:59 13,5 C 96 % 1012,7 hPa 0,3 l/m 1,8 km/h (1 Bft) S-SO 148 0 min 0,000 mm 1,0 UV-I 127 W/m 12,9 C 13,5 C 4,0 km/h (1 Bft) 0,00 %
07.10.2015 13:04 13,6 C 96 % 1012,5 hPa 0,0 l/m 2,9 km/h (1 Bft) SW 217 0 min 0,000 mm 1,0 UV-I 129 W/m 13,0 C 13,6 C 4,0 km/h (1 Bft) 0,00 %
07.10.2015 13:09 13,6 C 96 % 1012,5 hPa 0,3 l/m 0,0 km/h (0 Bft) SO 143 0 min 0,000 mm 1,0 UV-I 164 W/m 13,0 C 13,6 C 0,0 km/h (0 Bft) 0,00 %
07.10.2015 13:14 13,6 C 96 % 1012,5 hPa 0,0 l/m 0,0 km/h (0 Bft) S 186 0 min 0,000 mm 1,0 UV-I 180 W/m 13,0 C 13,6 C 0,0 km/h (0 Bft) 0,00 %
07.10.2015 13:19 13,8 C 96 % 1012,5 hPa 0,3 l/m 0,4 km/h (0 Bft) N-NO 21 0 min 0,000 mm 1,0 UV-I 185 W/m 13,2 C 13,8 C 4,0 km/h (1 Bft) 0,00 %
07.10.2015 13:24 13,8 C 96 % 1012,6 hPa 0,0 l/m 0,0 km/h (0 Bft) NO 41 0 min 0,000 mm 1,0 UV-I 187 W/m 13,2 C 13,8 C 0,0 km/h (0 Bft) 0,00 %
07.10.2015 13:29 13,9 C 96 % 1012,6 hPa 0,0 l/m 0,4 km/h (0 Bft) S-SW 194 0 min 0,000 mm 1,0 UV-I 183 W/m 13,3 C 13,9 C 4,0 km/h (1 Bft) 0,00 %
07.10.2015 13:34 13,9 C 95 % 1012,6 hPa 0,3 l/m 1,8 km/h (1 Bft) NW 308 0 min 0,000 mm 1,0 UV-I 182 W/m 13,1 C 13,9 C 4,0 km/h (1 Bft) 0,00 %
07.10.2015 13:39 14,0 C 95 % 1012,7 hPa 0,0 l/m 0,0 km/h (0 Bft) O-SO 116 0 min 0,000 mm 1,0 UV-I 173 W/m 13,2 C 14,0 C 0,0 km/h (0 Bft) 0,00 %
07.10.2015 13:44 14,0 C 95 % 1011,8 hPa 0,0 l/m 0,0 km/h (0 Bft) NO 36 0 min 0,000 mm 1,0 UV-I 172 W/m 13,2 C 14,0 C 0,0 km/h (0 Bft) 0,00 %
07.10.2015 13:49 14,1 C 95 % 1012,7 hPa 0,0 l/m 2,9 km/h (1 Bft) S 176 0 min 0,000 mm 1,0 UV-I 138 W/m 13,3 C 14,1 C 4,0 km/h (1 Bft) 0,00 %
07.10.2015 13:54 14,1 C 95 % 1012,7 hPa 0,0 l/m 0,0 km/h (0 Bft) NO 54 0 min 0,000 mm 1,0 UV-I 127 W/m 13,3 C 14,1 C 0,0 km/h (0 Bft) 0,00 %
07.10.2015 13:59 14,1 C 95 % 1012,7 hPa 0,0 l/m 0,4 km/h (0 Bft) N 350 0 min 0,000 mm 1,0 UV-I 139 W/m 13,3 C 14,1 C 4,0 km/h (1 Bft) 0,00 %
07.10.2015 14:04 14,1 C 95 % 1012,8 hPa 0,0 l/m 0,4 km/h (0 Bft) N-NW 343 0 min 0,000 mm 1,0 UV-I 125 W/m 13,3 C 14,1 C 4,0 km/h (1 Bft) 0,00 %
07.10.2015 14:09 14,1 C 95 % 1012,9 hPa 0,0 l/m 0,0 km/h (0 Bft) O 83 0 min 0,000 mm 1,0 UV-I 142 W/m 13,3 C 14,1 C 0,0 km/h (0 Bft) 0,00 %
07.10.2015 14:14 14,1 C 95 % 1012,7 hPa 0,0 l/m 2,2 km/h (1 Bft) S-SW 201 0 min 0,000 mm 1,0 UV-I 126 W/m 13,3 C 14,1 C 4,0 km/h (1 Bft) 0,00 %
07.10.2015 14:19 14,1 C 95 % 1012,8 hPa 0,3 l/m 0,0 km/h (0 Bft) O 84 0 min 0,000 mm 1,0 UV-I 144 W/m 13,3 C 14,1 C 0,0 km/h (0 Bft) 0,00 %
07.10.2015 14:24 14,1 C 95 % 1012,6 hPa 0,0 l/m 0,0 km/h (0 Bft) S 187 0 min 0,000 mm 1,0 UV-I 156 W/m 13,3 C 14,1 C 0,0 km/h (0 Bft) 0,00 %
07.10.2015 14:29 14,2 C 95 % 1012,7 hPa 0,0 l/m 1,8 km/h (1 Bft) S 174 0 min 0,000 mm 1,0 UV-I 139 W/m 13,4 C 14,2 C 4,0 km/h (1 Bft) 0,00 %
07.10.2015 14:34 14,2 C 95 % 1012,6 hPa 0,0 l/m 6,8 km/h (2 Bft) S 174 0 min 0,000 mm 1,0 UV-I 160 W/m 13,4 C 14,0 C 7,9 km/h (2 Bft) 0,00 %
07.10.2015 14:39 14,2 C 95 % 1012,6 hPa 0,0 l/m 1,4 km/h (1 Bft) S-SW 207 0 min 0,000 mm 1,0 UV-I 170 W/m 13,4 C 14,2 C 4,0 km/h (1 Bft) 0,00 %
07.10.2015 14:44 14,2 C 95 % 1012,8 hPa 0,0 l/m 0,0 km/h (0 Bft) S-SW 199 0 min 0,000 mm 1,0 UV-I 177 W/m 13,4 C 14,2 C 0,0 km/h (0 Bft) 0,00 %
07.10.2015 14:49 14,3 C 95 % 1012,7 hPa 0,0 l/m 5,4 km/h (1 Bft) W-NW 296 0 min 0,000 mm 1,0 UV-I 180 W/m 13,5 C 14,3 C 7,9 km/h (2 Bft) 0,00 %
07.10.2015 14:54 14,3 C 94 % 1012,7 hPa 0,0 l/m 0,0 km/h (0 Bft) SW 217 0 min 0,000 mm 1,0 UV-I 199 W/m 13,3 C 14,3 C 0,0 km/h (0 Bft) 0,00 %
07.10.2015 14:59 14,4 C 94 % 1012,9 hPa 0,0 l/m 6,5 km/h (2 Bft) SW 216 0 min 0,000 mm 1,0 UV-I 191 W/m 13,4 C 14,4 C 7,9 km/h (2 Bft) 0,00 %
07.10.2015 15:04 14,4 C 94 % 1012,7 hPa 0,0 l/m 2,2 km/h (1 Bft) S-SO 147 0 min 0,000 mm 1,0 UV-I 189 W/m 13,4 C 14,4 C 4,0 km/h (1 Bft) 0,00 %
07.10.2015 15:09 14,4 C 94 % 1012,7 hPa 0,0 l/m 6,5 km/h (2 Bft) S-SW 199 0 min 0,000 mm 1,0 UV-I 177 W/m 13,4 C 14,4 C 11,9 km/h (2 Bft) 0,00 %
07.10.2015 15:14 14,4 C 94 % 1012,8 hPa 0,0 l/m 0,7 km/h (0 Bft) O 93 0 min 0,000 mm 1,0 UV-I 162 W/m 13,4 C 14,4 C 4,0 km/h (1 Bft) 0,00 %
07.10.2015 15:19 14,4 C 94 % 1012,8 hPa 0,0 l/m 4,7 km/h (1 Bft) S 182 0 min 0,000 mm 0,0 UV-I 134 W/m 13,4 C 14,4 C 7,9 km/h (2 Bft) 0,00 %
07.10.2015 15:24 14,4 C 94 % 1012,8 hPa 0,0 l/m 4,3 km/h (1 Bft) S 189 0 min 0,000 mm 1,0 UV-I 159 W/m 13,4 C 14,4 C 7,9 km/h (2 Bft) 0,00 %
07.10.2015 15:29 14,4 C 93 % 1012,8 hPa 0,0 l/m 1,8 km/h (1 Bft) S 191 0 min 0,000 mm 0,0 UV-I 150 W/m 13,3 C 14,4 C 4,0 km/h (1 Bft) 0,00 %
07.10.2015 15:34 14,4 C 93 % 1013,0 hPa 0,0 l/m 2,9 km/h (1 Bft) S 175 0 min 0,000 mm 1,0 UV-I 159 W/m 13,3 C 14,4 C 4,0 km/h (1 Bft) 0,00 %
07.10.2015 15:39 14,4 C 93 % 1012,9 hPa 0,0 l/m 0,0 km/h (0 Bft) SW 218 0 min 0,000 mm 1,0 UV-I 142 W/m 13,3 C 14,4 C 0,0 km/h (0 Bft) 0,00 %
07.10.2015 15:44 14,5 C 93 % 1013,0 hPa 0,0 l/m 0,0 km/h (0 Bft) SW 225 0 min 0,000 mm 0,0 UV-I 112 W/m 13,4 C 14,5 C 0,0 km/h (0 Bft) 0,00 %
07.10.2015 15:49 14,5 C 93 % 1012,9 hPa 0,0 l/m 5,8 km/h (2 Bft) S 172 0 min 0,000 mm 0,0 UV-I 88 W/m 13,4 C 14,5 C 7,9 km/h (2 Bft) 0,00 %
07.10.2015 15:54 14,4 C 93 % 1013,3 hPa 0,0 l/m 0,7 km/h (0 Bft) S-SO 157 0 min 0,000 mm 0,0 UV-I 70 W/m 13,3 C 14,4 C 4,0 km/h (1 Bft) 0,00 %
07.10.2015 15:59 14,3 C 93 % 1013,1 hPa 0,0 l/m 0,4 km/h (0 Bft) O-SO 105 0 min 0,000 mm 0,0 UV-I 74 W/m 13,2 C 14,3 C 4,0 km/h (1 Bft) 0,00 %
07.10.2015 16:04 14,3 C 93 % 1013,3 hPa 0,0 l/m 0,0 km/h (0 Bft) S 175 0 min 0,000 mm 0,0 UV-I 68 W/m 13,2 C 14,3 C 0,0 km/h (0 Bft) 0,00 %
07.10.2015 16:09 14,3 C 93 % 1013,2 hPa 0,0 l/m 0,0 km/h (0 Bft) W-NW 292 0 min 0,000 mm 0,0 UV-I 71 W/m 13,2 C 14,3 C 0,0 km/h (0 Bft) 0,00 %
07.10.2015 16:14 14,3 C 94 % 1013,2 hPa 0,0 l/m 0,0 km/h (0 Bft) SW 220 0 min 0,000 mm 0,0 UV-I 66 W/m 13,3 C 14,3 C 0,0 km/h (0 Bft) 0,00 %
07.10.2015 16:19 14,3 C 94 % 1013,0 hPa 0,3 l/m 0,0 km/h (0 Bft) O-NO 69 0 min 0,000 mm 0,0 UV-I 73 W/m 13,3 C 14,3 C 0,0 km/h (0 Bft) 0,00 %
07.10.2015 16:24 14,3 C 94 % 1013,1 hPa 0,0 l/m 0,0 km/h (0 Bft) S 186 0 min 0,000 mm 0,0 UV-I 82 W/m 13,3 C 14,3 C 0,0 km/h (0 Bft) 0,00 %
07.10.2015 16:29 14,4 C 94 % 1012,3 hPa 0,0 l/m 0,4 km/h (0 Bft) S 173 0 min 0,000 mm 0,0 UV-I 120 W/m 13,4 C 14,4 C 4,0 km/h (1 Bft) 0,00 %
07.10.2015 16:34 14,4 C 94 % 1013,0 hPa 0,0 l/m 0,0 km/h (0 Bft) S 172 0 min 0,000 mm 0,0 UV-I 118 W/m 13,4 C 14,4 C 0,0 km/h (0 Bft) 0,00 %
07.10.2015 16:39 14,4 C 94 % 1013,1 hPa 0,0 l/m 0,0 km/h (0 Bft) SO 127 0 min 0,000 mm 0,0 UV-I 110 W/m 13,4 C 14,4 C 0,0 km/h (0 Bft) 0,00 %
07.10.2015 16:44 14,4 C 94 % 1012,8 hPa 0,0 l/m 0,0 km/h (0 Bft) O 90 0 min 0,000 mm 0,0 UV-I 103 W/m 13,4 C 14,4 C 0,0 km/h (0 Bft) 0,00 %
07.10.2015 16:49 14,4 C 94 % 1013,0 hPa 0,0 l/m 0,0 km/h (0 Bft) O 91 0 min 0,000 mm 0,0 UV-I 97 W/m 13,4 C 14,4 C 0,0 km/h (0 Bft) 0,00 %
07.10.2015 16:54 14,4 C 94 % 1012,9 hPa 0,0 l/m 0,0 km/h (0 Bft) O 94 0 min 0,000 mm 0,0 UV-I 84 W/m 13,4 C 14,4 C 0,0 km/h (0 Bft) 0,00 %
07.10.2015 16:59 14,4 C 94 % 1013,1 hPa 0,0 l/m 0,0 km/h (0 Bft) O 81 0 min 0,000 mm 0,0 UV-I 73 W/m 13,4 C 14,4 C 0,0 km/h (0 Bft) 0,00 %
07.10.2015 17:04 14,3 C 94 % 1013,2 hPa 0,0 l/m 0,0 km/h (0 Bft) O 79 0 min 0,000 mm 0,0 UV-I 63 W/m 13,3 C 14,3 C 0,0 km/h (0 Bft) 0,00 %
07.10.2015 17:09 14,2 C 94 % 1013,3 hPa 0,0 l/m 0,0 km/h (0 Bft) SO 127 0 min 0,000 mm 0,0 UV-I 55 W/m 13,2 C 14,2 C 0,0 km/h (0 Bft) 0,00 %
07.10.2015 17:14 14,1 C 94 % 1013,3 hPa 0,0 l/m 0,7 km/h (0 Bft) S 173 0 min 0,000 mm 0,0 UV-I 48 W/m 13,1 C 14,1 C 4,0 km/h (1 Bft) 0,00 %
07.10.2015 17:19 14,1 C 94 % 1013,2 hPa 0,0 l/m 0,4 km/h (0 Bft) O-SO 116 0 min 0,000 mm 0,0 UV-I 41 W/m 13,1 C 14,1 C 4,0 km/h (1 Bft) 0,00 %
07.10.2015 17:24 14,1 C 94 % 1013,4 hPa 0,0 l/m 0,4 km/h (0 Bft) N-NW 329 0 min 0,000 mm 0,0 UV-I 35 W/m 13,1 C 14,1 C 4,0 km/h (1 Bft) 0,00 %
07.10.2015 17:29 14,0 C 94 % 1013,4 hPa 0,0 l/m 0,0 km/h (0 Bft) O-NO 74 0 min 0,000 mm 0,0 UV-I 31 W/m 13,0 C 14,0 C 0,0 km/h (0 Bft) 0,00 %
07.10.2015 17:34 14,0 C 95 % 1013,6 hPa 0,0 l/m 0,0 km/h (0 Bft) SW 225 0 min 0,000 mm 0,0 UV-I 28 W/m 13,2 C 14,0 C 0,0 km/h (0 Bft) 0,00 %
07.10.2015 17:39 13,9 C 96 % 1013,4 hPa 0,0 l/m 0,0 km/h (0 Bft) O-NO 66 0 min 0,000 mm 0,0 UV-I 26 W/m 13,3 C 13,9 C 0,0 km/h (0 Bft) 0,00 %
07.10.2015 17:44 13,9 C 96 % 1013,5 hPa 0,0 l/m 0,0 km/h (0 Bft) S-SW 203 0 min 0,000 mm 0,0 UV-I 24 W/m 13,3 C 13,9 C 0,0 km/h (0 Bft) 0,00 %
07.10.2015 17:49 13,8 C 96 % 1013,3 hPa 0,0 l/m 0,0 km/h (0 Bft) O 87 0 min 0,000 mm 0,0 UV-I 22 W/m 13,2 C 13,8 C 0,0 km/h (0 Bft) 0,00 %
07.10.2015 17:54 13,8 C 96 % 1013,6 hPa 0,0 l/m 0,0 km/h (0 Bft) O 99 0 min 0,000 mm 0,0 UV-I 18 W/m 13,2 C 13,8 C 0,0 km/h (0 Bft) 0,00 %
07.10.2015 17:59 13,8 C 96 % 1013,7 hPa 0,0 l/m 0,0 km/h (0 Bft) SW 227 0 min 0,000 mm 0,0 UV-I 11 W/m 13,2 C 13,8 C 0,0 km/h (0 Bft) 0,00 %
07.10.2015 18:04 13,7 C 96 % 1013,6 hPa 0,0 l/m 0,0 km/h (0 Bft) O-NO 76 0 min 0,000 mm 0,0 UV-I 5 W/m 13,1 C 13,7 C 0,0 km/h (0 Bft) 0,00 %
07.10.2015 18:09 13,7 C 96 % 1013,7 hPa 0,0 l/m 0,0 km/h (0 Bft) S-SW 212 0 min 0,000 mm 0,0 UV-I 1 W/m 13,1 C 13,7 C 0,0 km/h (0 Bft) 0,00 %
07.10.2015 18:14 13,7 C 96 % 1013,8 hPa 0,3 l/m 0,0 km/h (0 Bft) SO 128 0 min 0,000 mm 0,0 UV-I 0 W/m 13,1 C 13,7 C 0,0 km/h (0 Bft) 0,00 %
07.10.2015 18:20 13,7 C 96 % 1013,8 hPa 0,0 l/m 0,0 km/h (0 Bft) SO 128 0 min 0,000 mm 0,0 UV-I 0 W/m 13,1 C 13,7 C 0,0 km/h (0 Bft) 0,00 %
07.10.2015 18:25 13,6 C 96 % 1013,7 hPa 0,0 l/m 0,0 km/h (0 Bft) SO 128 0 min 0,000 mm 0,0 UV-I 0 W/m 13,0 C 13,6 C 0,0 km/h (0 Bft) 0,00 %
07.10.2015 18:30 13,6 C 96 % 1013,9 hPa 0,0 l/m 0,0 km/h (0 Bft) SO 128 0 min 0,000 mm 0,0 UV-I 0 W/m 13,0 C 13,6 C 0,0 km/h (0 Bft) 0,00 %
07.10.2015 18:35 13,6 C 96 % 1014,0 hPa 0,0 l/m 0,0 km/h (0 Bft) SO 140 0 min 0,000 mm 0,0 UV-I 0 W/m 13,0 C 13,6 C 0,0 km/h (0 Bft) 0,00 %
07.10.2015 18:40 13,6 C 96 % 1014,0 hPa 0,0 l/m 0,0 km/h (0 Bft) SO 140 0 min 0,000 mm 0,0 UV-I 0 W/m 13,0 C 13,6 C 0,0 km/h (0 Bft) 0,00 %
07.10.2015 18:45 13,5 C 96 % 1014,1 hPa 0,0 l/m 0,0 km/h (0 Bft) S 174 0 min 0,000 mm 0,0 UV-I 0 W/m 12,9 C 13,5 C 0,0 km/h (0 Bft) 0,00 %
07.10.2015 18:50 13,5 C 96 % 1014,0 hPa 0,0 l/m 0,0 km/h (0 Bft) S 179 0 min 0,000 mm 0,0 UV-I 0 W/m 12,9 C 13,5 C 0,0 km/h (0 Bft) 0,00 %
07.10.2015 18:55 13,5 C 96 % 1014,2 hPa 0,0 l/m 0,0 km/h (0 Bft) O-NO 71 0 min 0,000 mm 0,0 UV-I 0 W/m 12,9 C 13,5 C 0,0 km/h (0 Bft) 0,00 %
07.10.2015 19:00 13,5 C 96 % 1014,2 hPa 0,0 l/m 0,0 km/h (0 Bft) S-SW 199 0 min 0,000 mm 0,0 UV-I 0 W/m 12,9 C 13,5 C 0,0 km/h (0 Bft) 0,00 %
07.10.2015 19:05 13,5 C 97 % 1014,3 hPa 0,3 l/m 0,0 km/h (0 Bft) SO 133 0 min 0,000 mm 0,0 UV-I 0 W/m 13,0 C 13,5 C 0,0 km/h (0 Bft) 0,00 %
07.10.2015 19:10 13,5 C 97 % 1014,3 hPa 0,0 l/m 0,0 km/h (0 Bft) S-SW 192 0 min 0,000 mm 0,0 UV-I 0 W/m 13,0 C 13,5 C 0,0 km/h (0 Bft) 0,00 %
07.10.2015 19:15 13,5 C 97 % 1014,3 hPa 0,0 l/m 0,0 km/h (0 Bft) O-SO 114 0 min 0,000 mm 0,0 UV-I 0 W/m 13,0 C 13,5 C 0,0 km/h (0 Bft) 0,00 %
07.10.2015 19:20 13,5 C 97 % 1014,4 hPa 0,0 l/m 0,0 km/h (0 Bft) S 173 0 min 0,000 mm 0,0 UV-I 0 W/m 13,0 C 13,5 C 0,0 km/h (0 Bft) 0,00 %
07.10.2015 19:25 13,5 C 97 % 1014,4 hPa 0,3 l/m 1,8 km/h (1 Bft) SO 133 0 min 0,000 mm 0,0 UV-I 0 W/m 13,0 C 13,5 C 4,0 km/h (1 Bft) 0,00 %
07.10.2015 19:30 13,5 C 97 % 1014,3 hPa 0,0 l/m 0,0 km/h (0 Bft) N 357 0 min 0,000 mm 0,0 UV-I 0 W/m 13,0 C 13,5 C 0,0 km/h (0 Bft) 0,00 %
07.10.2015 19:35 13,4 C 97 % 1014,3 hPa 0,0 l/m 0,0 km/h (0 Bft) O-NO 66 0 min 0,000 mm 0,0 UV-I 0 W/m 12,9 C 13,4 C 0,0 km/h (0 Bft) 0,00 %
07.10.2015 19:40 13,4 C 97 % 1014,3 hPa 0,3 l/m 0,0 km/h (0 Bft) S 177 0 min 0,000 mm 0,0 UV-I 0 W/m 12,9 C 13,4 C 0,0 km/h (0 Bft) 0,00 %
07.10.2015 19:45 13,4 C 97 % 1014,3 hPa 0,0 l/m 0,0 km/h (0 Bft) S 173 0 min 0,000 mm 0,0 UV-I 0 W/m 12,9 C 13,4 C 0,0 km/h (0 Bft) 0,00 %
07.10.2015 19:50 13,4 C 97 % 1014,3 hPa 0,0 l/m 0,0 km/h (0 Bft) N 355 0 min 0,000 mm 0,0 UV-I 0 W/m 12,9 C 13,4 C 0,0 km/h (0 Bft) 0,00 %
07.10.2015 19:55 13,4 C 97 % 1014,3 hPa 0,3 l/m 0,4 km/h (0 Bft) SO 139 0 min 0,000 mm 0,0 UV-I 0 W/m 12,9 C 13,4 C 4,0 km/h (1 Bft) 0,00 %
07.10.2015 20:00 13,4 C 97 % 1014,5 hPa 0,0 l/m 0,0 km/h (0 Bft) O-NO 61 0 min 0,000 mm 0,0 UV-I 0 W/m 12,9 C 13,4 C 0,0 km/h (0 Bft) 0,00 %
07.10.2015 20:05 13,4 C 97 % 1014,5 hPa 0,0 l/m 1,8 km/h (1 Bft) S-SW 193 0 min 0,000 mm 0,0 UV-I 0 W/m 12,9 C 13,4 C 4,0 km/h (1 Bft) 0,00 %
07.10.2015 20:10 13,3 C 97 % 1014,6 hPa 0,0 l/m 0,0 km/h (0 Bft) O 90 0 min 0,000 mm 0,0 UV-I 0 W/m 12,8 C 13,3 C 0,0 km/h (0 Bft) 0,00 %
07.10.2015 20:15 13,3 C 97 % 1014,5 hPa 0,3 l/m 0,7 km/h (0 Bft) S 176 0 min 0,000 mm 0,0 UV-I 0 W/m 12,8 C 13,3 C 4,0 km/h (1 Bft) 0,00 %
07.10.2015 20:20 13,3 C 97 % 1014,7 hPa 0,0 l/m 0,0 km/h (0 Bft) O-NO 68 0 min 0,000 mm 0,0 UV-I 0 W/m 12,8 C 13,3 C 0,0 km/h (0 Bft) 0,00 %
07.10.2015 20:25 13,3 C 97 % 1014,8 hPa 0,0 l/m 0,0 km/h (0 Bft) S-SO 167 0 min 0,000 mm 0,0 UV-I 0 W/m 12,8 C 13,3 C 0,0 km/h (0 Bft) 0,00 %
07.10.2015 20:30 13,2 C 97 % 1014,6 hPa 0,3 l/m 2,9 km/h (1 Bft) SW 218 0 min 0,000 mm 0,0 UV-I 0 W/m 12,7 C 13,2 C 4,0 km/h (1 Bft) 0,00 %
07.10.2015 20:35 13,2 C 97 % 1014,6 hPa 0,0 l/m 1,8 km/h (1 Bft) S-SW 210 0 min 0,000 mm 0,0 UV-I 0 W/m 12,7 C 13,2 C 4,0 km/h (1 Bft) 0,00 %
07.10.2015 20:40 13,2 C 97 % 1014,8 hPa 0,0 l/m 0,0 km/h (0 Bft) O-SO 111 0 min 0,000 mm 0,0 UV-I 0 W/m 12,7 C 13,2 C 0,0 km/h (0 Bft) 0,00 %
07.10.2015 20:45 13,2 C 97 % 1014,7 hPa 0,3 l/m 0,0 km/h (0 Bft) S-SW 194 0 min 0,000 mm 0,0 UV-I 0 W/m 12,7 C 13,2 C 0,0 km/h (0 Bft) 0,00 %
07.10.2015 20:50 13,2 C 97 % 1014,7 hPa 0,0 l/m 0,0 km/h (0 Bft) S 176 0 min 0,000 mm 0,0 UV-I 0 W/m 12,7 C 13,2 C 0,0 km/h (0 Bft) 0,00 %
07.10.2015 20:55 13,1 C 98 % 1014,8 hPa 0,3 l/m 0,0 km/h (0 Bft) W-SW 253 0 min 0,000 mm 0,0 UV-I 0 W/m 12,8 C 13,1 C 0,0 km/h (0 Bft) 0,00 %
07.10.2015 21:00 13,1 C 98 % 1014,9 hPa 0,0 l/m 0,0 km/h (0 Bft) SW 227 0 min 0,000 mm 0,0 UV-I 0 W/m 12,8 C 13,1 C 0,0 km/h (0 Bft) 0,00 %
07.10.2015 21:05 13,1 C 98 % 1014,7 hPa 0,3 l/m 0,0 km/h (0 Bft) S 177 0 min 0,000 mm 0,0 UV-I 0 W/m 12,8 C 13,1 C 0,0 km/h (0 Bft) 0,00 %
07.10.2015 21:10 13,1 C 99 % 1014,9 hPa 0,0 l/m 0,4 km/h (0 Bft) S-SO 162 0 min 0,000 mm 0,0 UV-I 0 W/m 12,9 C 13,1 C 4,0 km/h (1 Bft) 0,00 %
07.10.2015 21:15 13,1 C 99 % 1014,8 hPa 0,3 l/m 0,7 km/h (0 Bft) SW 216 0 min 0,000 mm 0,0 UV-I 0 W/m 12,9 C 13,1 C 4,0 km/h (1 Bft) 0,00 %
07.10.2015 21:20 13,1 C 99 % 1015,0 hPa 0,0 l/m 3,2 km/h (1 Bft) S-SW 197 0 min 0,000 mm 0,0 UV-I 0 W/m 12,9 C 13,1 C 4,0 km/h (1 Bft) 0,00 %
07.10.2015 21:25 13,1 C 99 % 1014,9 hPa 0,3 l/m 0,4 km/h (0 Bft) S 169 0 min 0,000 mm 0,0 UV-I 0 W/m 12,9 C 13,1 C 4,0 km/h (1 Bft) 0,00 %
07.10.2015 21:30 13,0 C 99 % 1015,0 hPa 0,0 l/m 0,0 km/h (0 Bft) O-SO 102 0 min 0,000 mm 0,0 UV-I 0 W/m 12,8 C 13,0 C 0,0 km/h (0 Bft) 0,00 %
07.10.2015 21:35 13,0 C 99 % 1015,0 hPa 0,0 l/m 0,0 km/h (0 Bft) S 178 0 min 0,000 mm 0,0 UV-I 0 W/m 12,8 C 13,0 C 0,0 km/h (0 Bft) 0,00 %
07.10.2015 21:40 12,9 C 99 % 1015,1 hPa 0,3 l/m 0,0 km/h (0 Bft) W-NW 297 0 min 0,000 mm 0,0 UV-I 0 W/m 12,7 C 12,9 C 0,0 km/h (0 Bft) 0,00 %
07.10.2015 21:45 12,9 C 99 % 1015,0 hPa 0,0 l/m 0,0 km/h (0 Bft) O-NO 67 0 min 0,000 mm 0,0 UV-I 0 W/m 12,7 C 12,9 C 0,0 km/h (0 Bft) 0,00 %
07.10.2015 21:50 12,9 C 99 % 1014,9 hPa 0,0 l/m 1,8 km/h (1 Bft) S 185 0 min 0,000 mm 0,0 UV-I 0 W/m 12,7 C 12,9 C 4,0 km/h (1 Bft) 0,00 %
07.10.2015 21:55 12,9 C 99 % 1015,0 hPa 0,3 l/m 2,2 km/h (1 Bft) S-SW 197 0 min 0,000 mm 0,0 UV-I 0 W/m 12,7 C 12,9 C 4,0 km/h (1 Bft) 0,00 %
07.10.2015 22:00 12,9 C 99 % 1015,1 hPa 0,0 l/m 4,7 km/h (1 Bft) S-SO 149 0 min 0,000 mm 0,0 UV-I 0 W/m 12,7 C 12,9 C 7,9 km/h (2 Bft) 0,00 %
07.10.2015 22:05 12,9 C 99 % 1015,1 hPa 0,3 l/m 0,7 km/h (0 Bft) O 92 0 min 0,000 mm 0,0 UV-I 0 W/m 12,7 C 12,9 C 4,0 km/h (1 Bft) 0,00 %
07.10.2015 22:10 12,9 C 99 % 1015,1 hPa 0,0 l/m 1,8 km/h (1 Bft) SW 226 0 min 0,000 mm 0,0 UV-I 0 W/m 12,7 C 12,9 C 4,0 km/h (1 Bft) 0,00 %
07.10.2015 22:15 12,9 C 99 % 1015,2 hPa 0,3 l/m 0,4 km/h (0 Bft) W-SW 255 0 min 0,000 mm 0,0 UV-I 0 W/m 12,7 C 12,9 C 4,0 km/h (1 Bft) 0,00 %
07.10.2015 22:20 12,9 C 99 % 1015,1 hPa 0,0 l/m 1,4 km/h (1 Bft) SW 216 0 min 0,000 mm 0,0 UV-I 0 W/m 12,7 C 12,9 C 4,0 km/h (1 Bft) 0,00 %
07.10.2015 22:25 12,9 C 99 % 1015,2 hPa 0,3 l/m 0,0 km/h (0 Bft) S-SW 206 0 min 0,000 mm 0,0 UV-I 0 W/m 12,7 C 12,9 C 0,0 km/h (0 Bft) 0,00 %
07.10.2015 22:30 12,9 C 99 % 1015,1 hPa 0,3 l/m 0,0 km/h (0 Bft) W-SW 248 0 min 0,000 mm 0,0 UV-I 0 W/m 12,7 C 12,9 C 0,0 km/h (0 Bft) 0,00 %
07.10.2015 22:35 13,0 C 99 % 1015,3 hPa 0,3 l/m 0,4 km/h (0 Bft) SW 221 0 min 0,000 mm 0,0 UV-I 0 W/m 12,8 C 13,0 C 4,0 km/h (1 Bft) 0,00 %
07.10.2015 22:40 13,0 C 99 % 1015,3 hPa 0,3 l/m 10,4 km/h (2 Bft) S-SW 195 0 min 0,000 mm 0,0 UV-I 0 W/m 12,8 C 10,7 C 11,9 km/h (2 Bft) 0,00 %
07.10.2015 22:45 13,0 C 99 % 1015,4 hPa 0,0 l/m 2,9 km/h (1 Bft) S 185 0 min 0,000 mm 0,0 UV-I 0 W/m 12,8 C 13,0 C 4,0 km/h (1 Bft) 0,00 %
07.10.2015 22:50 13,0 C 99 % 1015,4 hPa 0,3 l/m 0,7 km/h (0 Bft) W-SW 253 0 min 0,000 mm 0,0 UV-I 0 W/m 12,8 C 13,0 C 4,0 km/h (1 Bft) 0,00 %
07.10.2015 22:55 12,9 C 99 % 1015,5 hPa 0,0 l/m 3,2 km/h (1 Bft) S 181 0 min 0,000 mm 0,0 UV-I 0 W/m 12,7 C 12,9 C 4,0 km/h (1 Bft) 0,00 %
07.10.2015 23:00 12,9 C 99 % 1015,4 hPa 0,3 l/m 0,0 km/h (0 Bft) S 173 0 min 0,000 mm 0,0 UV-I 0 W/m 12,7 C 12,9 C 0,0 km/h (0 Bft) 0,00 %
07.10.2015 23:05 12,9 C 99 % 1015,6 hPa 0,0 l/m 2,2 km/h (1 Bft) W-SW 250 0 min 0,000 mm 0,0 UV-I 0 W/m 12,7 C 12,9 C 4,0 km/h (1 Bft) 0,00 %
07.10.2015 23:10 12,8 C 99 % 1015,6 hPa 0,3 l/m 4,3 km/h (1 Bft) W-SW 256 0 min 0,000 mm 0,0 UV-I 0 W/m 12,6 C 12,8 C 7,9 km/h (2 Bft) 0,00 %
07.10.2015 23:15 12,7 C 99 % 1015,6 hPa 0,0 l/m 5,4 km/h (1 Bft) S 173 0 min 0,000 mm 0,0 UV-I 0 W/m 12,5 C 12,7 C 7,9 km/h (2 Bft) 0,00 %
07.10.2015 23:20 12,7 C 98 % 1015,6 hPa 0,3 l/m 4,3 km/h (1 Bft) S-SW 209 0 min 0,000 mm 0,0 UV-I 0 W/m 12,4 C 12,7 C 7,9 km/h (2 Bft) 0,00 %
07.10.2015 23:25 12,6 C 98 % 1015,6 hPa 0,0 l/m 4,0 km/h (1 Bft) S-SW 194 0 min 0,000 mm 0,0 UV-I 0 W/m 12,3 C 12,6 C 7,9 km/h (2 Bft) 0,00 %
07.10.2015 23:30 12,6 C 97 % 1015,8 hPa 0,3 l/m 4,0 km/h (1 Bft) SW 224 0 min 0,000 mm 0,0 UV-I 0 W/m 12,1 C 12,6 C 7,9 km/h (2 Bft) 0,00 %
07.10.2015 23:35 12,5 C 97 % 1015,7 hPa 0,0 l/m 4,7 km/h (1 Bft) S-SW 211 0 min 0,000 mm 0,0 UV-I 0 W/m 12,0 C 12,5 C 7,9 km/h (2 Bft) 0,00 %
07.10.2015 23:40 12,5 C 97 % 1015,8 hPa 0,0 l/m 4,7 km/h (1 Bft) SW 221 0 min 0,000 mm 0,0 UV-I 0 W/m 12,0 C 12,5 C 7,9 km/h (2 Bft) 0,00 %
07.10.2015 23:45 12,4 C 96 % 1015,7 hPa 0,3 l/m 9,4 km/h (2 Bft) S 185 0 min 0,000 mm 0,0 UV-I 0 W/m 11,8 C 10,6 C 11,9 km/h (2 Bft) 0,00 %
07.10.2015 23:50 12,4 C 96 % 1015,7 hPa 0,0 l/m 5,8 km/h (2 Bft) S 184 0 min 0,000 mm 0,0 UV-I 0 W/m 11,8 C 12,4 C 7,9 km/h (2 Bft) 0,00 %
07.10.2015 23:55 12,3 C 96 % 1015,9 hPa 0,3 l/m 2,9 km/h (1 Bft) S-SW 204 0 min 0,000 mm 0,0 UV-I 0 W/m 11,7 C 12,3 C 4,0 km/h (1 Bft) 0,00 %
_ Min-Zeit 07:19 00:03 00:08 - 00:13 - - - - - - 23:55 23:45 00:13 00:03
Minimum _ 12,3 C 93 % 1009,5 hPa - 0,0 km/h (0 Bft) - - - - - - 11,7 C 10,6 C 0,0 km/h (0 Bft) 0,00 %
_ Max-Zeit 15:44 21:10 23:55 01:24 22:40 - - 00:03 00:03 09:49 14:54 14:49 15:44 02:44 00:03
Maximum _ 14,5 C 99 % 1015,9 hPa 0,3 l/m 10,4 km/h
S-SW (2 Bft)
- - 0 min 0,000 mm 1,0 UV-I 199 W/m 13,5 C 14,5 C 15,8 km/h
S (3 Bft)
0,00 %
Durchschnitt _ 13,2 C 96 % 1012,3 hPa #23,4 l/m 1,9 km/h (1 Bft) S-SW - #0 min. #0,000 mm 1,0 UV-I 94 W/m 12,6 C 13,2 C 3,6 km/h (1 Bft) 0,00 %